• In Hungary
  • List of Countries
  • For 7 days
  • Water Temperature
  • Satellite Maps
  • Weather Map
  • News
  • Weather Widgets
  • user-avatar
    Login

    Hourly Weather Novgorodka

    Today, 24 September, Monday

    Time Temperature Precipitation Wind Pressure Humidity
    00:00 +13°C° 0 mm 2 mps 750 mmHg 60%
    01:00 +13°C° 0 mm 2 mps 750 mmHg 60%
    02:00 +12°C° 0 mm 3 mps 749 mmHg 61%
    03:00 +12°C° 0 mm 3 mps 749 mmHg 60%
    04:00 +12°C° 0 mm 4 mps 748 mmHg 60%
    05:00 +12°C° 0 mm 5 mps 748 mmHg 59%
    06:00 +13°C° 0 mm 6 mps 747 mmHg 57%
    07:00 +13°C° 0 mm 8 mps 747 mmHg 54%
    08:00 +15°C° 0 mm 9 mps 746 mmHg 51%
    09:00 +17°C° 0 mm 9 mps 745 mmHg 50%
    10:00 +18°C° 0 mm 10 mps 745 mmHg 49%
    11:00 +19°C° 0 mm 10 mps 744 mmHg 48%
    12:00 +21°C° 0.1 mm 10 mps 744 mmHg 52%
    13:00 +22°C° 0.1 mm 10 mps 743 mmHg 57%
    14:00 +22°C° 0.1 mm 10 mps 742 mmHg 61%
    15:00 +19°C° 2.3 mm 9 mps 743 mmHg 68%
    16:00 +17°C° 2.3 mm 9 mps 743 mmHg 75%
    17:00 +15°C° 2.3 mm 9 mps 743 mmHg 81%
    18:00 +13°C° 2.7 mm 8 mps 744 mmHg 82%
    19:00 +11°C° 2.7 mm 8 mps 744 mmHg 82%
    20:00 +10°C° 2.7 mm 7 mps 745 mmHg 82%
    21:00 +10°C° 0.9 mm 6 mps 746 mmHg 81%
    22:00 +9°C° 0.9 mm 6 mps 746 mmHg 79%
    23:00 +9°C° 0.9 mm 5 mps 747 mmHg 78%

    Tomorrow, 25 September, Tuesday

    Time Temperature Precipitation Wind Pressure Humidity
    00:00 +9°C° 0.1 mm 5 mps 747 mmHg 77%
    01:00 +9°C° 0.1 mm 5 mps 747 mmHg 77%
    02:00 +8°C° 0.1 mm 5 mps 747 mmHg 77%
    03:00 +8°C° 0 mm 5 mps 747 mmHg 78%
    04:00 +7°C° 0 mm 5 mps 747 mmHg 79%
    05:00 +7°C° 0 mm 5 mps 747 mmHg 79%
    06:00 +7°C° 0 mm 6 mps 748 mmHg 77%
    07:00 +8°C° 0 mm 6 mps 748 mmHg 75%
    08:00 +8°C° 0 mm 6 mps 748 mmHg 73%
    09:00 +9°C° 0 mm 6 mps 749 mmHg 71%
    10:00 +9°C° 0 mm 6 mps 749 mmHg 70%
    11:00 +9°C° 0 mm 6 mps 750 mmHg 68%
    12:00 +9°C° 0.1 mm 6 mps 750 mmHg 67%
    13:00 +10°C° 0.1 mm 6 mps 750 mmHg 66%
    14:00 +10°C° 0.1 mm 6 mps 750 mmHg 65%
    15:00 +9°C° 0.3 mm 6 mps 751 mmHg 68%
    16:00 +9°C° 0.3 mm 6 mps 751 mmHg 70%
    17:00 +9°C° 0.3 mm 6 mps 752 mmHg 73%
    18:00 +8°C° 0.1 mm 6 mps 752 mmHg 74%
    19:00 +8°C° 0.1 mm 6 mps 753 mmHg 75%
    20:00 +7°C° 0.1 mm 5 mps 754 mmHg 76%
    21:00 +7°C° 0 mm 5 mps 754 mmHg 77%
    22:00 +6°C° 0 mm 5 mps 754 mmHg 78%
    23:00 +6°C° 0 mm 4 mps 755 mmHg 79%

    Day after tomorrow, 26 September, Wednesday

    Time Temperature Precipitation Wind Pressure Humidity
    00:00 +5°C° 0 mm 4 mps 755 mmHg 79%
    01:00 +5°C° 0 mm 4 mps 756 mmHg 80%
    02:00 +5°C° 0 mm 5 mps 756 mmHg 80%
    03:00 +5°C° 0 mm 4 mps 756 mmHg 81%
    04:00 +4°C° 0 mm 4 mps 757 mmHg 81%
    05:00 +4°C° 0 mm 4 mps 757 mmHg 82%
    06:00 +5°C° 0 mm 5 mps 757 mmHg 78%
    07:00 +6°C° 0 mm 5 mps 758 mmHg 75%
    08:00 +5°C° 0 mm 6 mps 759 mmHg 71%
    09:00 +7°C° 0.1 mm 6 mps 759 mmHg 64%
    10:00 +8°C° 0.1 mm 6 mps 759 mmHg 57%
    11:00 +9°C° 0.1 mm 6 mps 759 mmHg 50%
    12:00 +10°C° 0.1 mm 6 mps 759 mmHg 48%
    13:00 +10°C° 0.1 mm 5 mps 759 mmHg 46%
    14:00 +10°C° 0.1 mm 5 mps 759 mmHg 43%
    15:00 +10°C° 0 mm 5 mps 759 mmHg 44%
    16:00 +10°C° 0 mm 4 mps 759 mmHg 46%
    17:00 +10°C° 0 mm 4 mps 759 mmHg 47%
    18:00 +9°C° 0 mm 3 mps 760 mmHg 50%
    19:00 +8°C° 0 mm 3 mps 760 mmHg 52%
    20:00 +7°C° 0 mm 2 mps 760 mmHg 55%
    21:00 +6°C° 0 mm 2 mps 760 mmHg 56%
    22:00 +6°C° 0 mm 2 mps 760 mmHg 56%
    23:00 +6°C° 0 mm 2 mps 760 mmHg 57%

    27 September, Thursday

    Time Temperature Precipitation Wind Pressure Humidity
    00:00 +6°C° 0 mm 2 mps 760 mmHg 58%
    01:00 +5°C° 0 mm 2 mps 760 mmHg 59%
    02:00 +5°C° 0 mm 2 mps 760 mmHg 60%
    03:00 +4°C° 0 mm 3 mps 759 mmHg 62%
    04:00 +4°C° 0 mm 3 mps 759 mmHg 63%
    05:00 +4°C° 0 mm 3 mps 759 mmHg 65%
    06:00 +5°C° 0 mm 4 mps 758 mmHg 62%
    07:00 +6°C° 0 mm 5 mps 758 mmHg 58%
    08:00 +8°C° 0 mm 5 mps 758 mmHg 55%
    09:00 +9°C° 0 mm 6 mps 758 mmHg 51%
    10:00 +11°C° 0 mm 6 mps 757 mmHg 47%
    11:00 +14°C° 0 mm 7 mps 757 mmHg 42%
    12:00 +14°C° 0 mm 7 mps 756 mmHg 41%
    13:00 +15°C° 0 mm 7 mps 756 mmHg 40%
    14:00 +16°C° 0 mm 7 mps 755 mmHg 38%
    15:00 +16°C° 0 mm 6 mps 754 mmHg 41%
    16:00 +15°C° 0 mm 5 mps 754 mmHg 44%
    17:00 +15°C° 0 mm 4 mps 754 mmHg 47%
    18:00 +14°C° 0 mm 4 mps 754 mmHg 49%
    19:00 +13°C° 0 mm 4 mps 754 mmHg 51%
    20:00 +13°C° 0 mm 4 mps 754 mmHg 54%
    21:00 +12°C° 0 mm 4 mps 754 mmHg 56%
    22:00 +12°C° 0 mm 4 mps 754 mmHg 59%
    23:00 +11°C° 0 mm 4 mps 753 mmHg 61%

    28 September, Friday

    Time Temperature Precipitation Wind Pressure Humidity
    00:00 +11°C° 0 mm 3 mps 753 mmHg 66%
    01:00 +11°C° 0 mm 3 mps 753 mmHg 70%
    02:00 +10°C° 0 mm 3 mps 753 mmHg 75%
    03:00 +10°C° 0 mm 3 mps 753 mmHg 79%
    04:00 +10°C° 0 mm 3 mps 753 mmHg 83%
    05:00 +10°C° 0 mm 2 mps 752 mmHg 88%
    06:00 +12°C° 0 mm 2 mps 752 mmHg 84%
    07:00 +13°C° 0 mm 2 mps 752 mmHg 80%
    08:00 +14°C° 0 mm 2 mps 752 mmHg 77%
    09:00 +16°C° 0 mm 3 mps 752 mmHg 70%
    10:00 +18°C° 0 mm 3 mps 752 mmHg 64%
    11:00 +20°C° 0 mm 3 mps 752 mmHg 57%
    12:00 +20°C° 0 mm 3 mps 751 mmHg 55%
    13:00 +20°C° 0 mm 4 mps 751 mmHg 54%
    14:00 +21°C° 0 mm 4 mps 750 mmHg 52%
    15:00 +20°C° 0 mm 3 mps 750 mmHg 55%
    16:00 +20°C° 0 mm 3 mps 750 mmHg 57%
    17:00 +19°C° 0 mm 2 mps 750 mmHg 60%
    18:00 +18°C° 0 mm 2 mps 750 mmHg 64%
    19:00 +17°C° 0 mm 2 mps 750 mmHg 68%
    20:00 +16°C° 0 mm 2 mps 750 mmHg 71%
    21:00 +15°C° 0 mm 2 mps 750 mmHg 73%
    22:00 +15°C° 0 mm 2 mps 750 mmHg 74%
    23:00 +15°C° 0 mm 2 mps 749 mmHg 75%

    29 September, Saturday

    Time Temperature Precipitation Wind Pressure Humidity
    00:00 +15°C° 0 mm 2 mps 749 mmHg 76%
    01:00 +14°C° 0 mm 2 mps 749 mmHg 77%
    02:00 +14°C° 0 mm 2 mps 749 mmHg 78%
    03:00 +14°C° 0 mm 2 mps 749 mmHg 80%
    04:00 +14°C° 0 mm 1 mps 749 mmHg 82%
    05:00 +13°C° 0 mm 1 mps 749 mmHg 83%
    06:00 +14°C° 0 mm 1 mps 749 mmHg 79%
    07:00 +16°C° 0 mm 1 mps 749 mmHg 75%
    08:00 +18°C° 0 mm 1 mps 749 mmHg 71%
    09:00 +19°C° 0 mm 1 mps 749 mmHg 66%
    10:00 +21°C° 0 mm 1 mps 749 mmHg 61%
    11:00 +22°C° 0 mm 1 mps 748 mmHg 57%
    12:00 +21°C° 0.4 mm 2 mps 748 mmHg 57%
    13:00 +22°C° 0.4 mm 3 mps 748 mmHg 56%
    14:00 +22°C° 0.4 mm 3 mps 748 mmHg 56%
    15:00 +20°C° 0.6 mm 4 mps 748 mmHg 62%
    16:00 +19°C° 0.6 mm 5 mps 748 mmHg 68%
    17:00 +16°C° 0.6 mm 5 mps 748 mmHg 73%
    18:00 +15°C° 0.5 mm 6 mps 749 mmHg 76%
    19:00 +12°C° 0.5 mm 7 mps 749 mmHg 78%
    20:00 +11°C° 0.5 mm 8 mps 750 mmHg 81%
    21:00 +10°C° 0.3 mm 7 mps 750 mmHg 81%
    22:00 +9°C° 0.3 mm 7 mps 751 mmHg 81%
    23:00 +9°C° 0.3 mm 7 mps 751 mmHg 81%
    Show more